SL-8 R/B

Satellite information

Favourite Embed

Satellite Type and Status

ROCKET BODYIN ORBIT

Key statistics

Satellite SL-8 R/B at a glance.

Uptime

13114

Days in orbit

Revolutions

≈ 14.4

Per day

Orbit

LEO

Low Earth Orbit

Inclination

74.0

Latest

Satellite identification and parameters

Extended collection of information and parameters for SL-8 R/B.

Object identification

Identified? True

Debris? False

Object name: SL-8 R/B

International designator: 1990-004B

Object number (NORAD): 20433

Object ID (CCSDS): 20433

Country: COMMONWEALTH OF INDEPENDENT STATES (CIS)

Current information (Y/N): Y

RCS size: LARGE

Orbital parameters

Period: 100.178 minutes

Inclination: 74.0369 deg

SMA: 7145.103 km

Apoapsis: 795.122 km

Periapsis: 738.815 km

RAAN: 61.523 deg

Eccentricy: 0.00394024

Argument of periapsis: 156.102 deg

Mean anomaly: 265.0986 deg

Mean motion: 14.37440953 rev/day

Mean motion (dot): 0.00000421 rev/day2

B* drag term: 0.00014817999 1/REarth

Two-line elements (TLE)

Creation date: Dec. 12, 2025, 10:14 a.m.

Reference frame: TEME

Reference center: EARTH

Epoch: Dec. 12, 2025, 7:16 a.m. UTC

TLE line 0: 0 SL-8 R/B

TLE line 1: 1 20433U 90004B 25346.30278323 .00000421 00000-0 14818-3 0 9995

TLE line 2: 2 20433 74.0369 61.5230 0039402 156.1020 265.0986 14.37440953880038

Live tracking on map

Real-time ground track for satellite SL-8 R/B.

In-orbit conjunctions

A list of the most updated potential collisions computed for object SL-8 R/B.

Target Orbit TCA Probability of collision Miss distance Type
DMSP 5D-2 F14 DEB SSO 2025-10-12 21:48:31 0.0003511293 96.0 (m) DEBRIS
CZ-4C DEB SSO 2025-09-03 17:21:17 0.0001474227 233.0 (m) DEBRIS
CZ-6A DEB LEO 2025-08-28 03:13:42 0.0009040367 129.0 (m) DEBRIS
NOAA 17 DEB SSO 2025-07-16 06:55:44 0.0001348105 235.0 (m) DEBRIS
COSMOS 2251 DEB LEO 2025-06-10 21:04:14 0.0003932161 456.0 (m) DEBRIS

Associated space launch

Military communications satellite

SL-8 R/B was lifted into orbit during the mission ‘Kosmos-3M | Strela-2M 47’, on board a Kosmos-3M space rocket.

The launch took place on Jan. 18, 1990, 12:52 p.m. from 133/3 (133L).

For more information about the launch, click the button.

Launch to space Kosmos-3M | Strela-2M 47
Kosmos-3M | Strela-2M 47

Agency: N/A

Status: Launch Successful

Launch date: Jan. 18, 1990, 12:52 p.m. UTC

Rocket: Kosmos-3M

Launch pad: 133/3 (133L)

Location: Plesetsk Cosmodrome, Russian Federation

...

Latest news about this satellite

There are no fresh news available about this satellite. Check back as we update our databases every day.


Newsletter sign-up

Weekly statistics, charts and insights to help you stay on top of the space industry.